STARLINK-2214 (48566 NORAD) Tracking and Keplerian Element Data

This shows tracking and keplerian element data for the satellite.

Feedback or suggestion? Click here.




ElementValue
Catalog48566
NameSTARLINK-2214
Epoch Orbit1231
Epoch Day215.14171469
Epoch Year2021
RAAN121.3937
Inclination53.0555
Eccentricity0.0001766
Argument of Perigee87.771
Mean Anonmoly272.3481
Mean Motion15.0640431
Decay Rate1.296E-05
L11 48566U 21041P 21215.14171469 .00001296 00000-0 10591-3 0 9998
L22 48566 53.0555 121.3937 0001766 87.7710 272.3481 15.06404310 12318

Live tracking and technical data element details for STARLINK-2214 (NORAD 48566). STARLINK-2214 can be tracked NOW for your location showing map with azimuth and elevation plus other details from your city location.

Track the satellite on the map from your city or location and see movement details for azimuth, elevation, latitude, longitude, range, height, and movement on the map or in text.







IsCatalogInMostPopularTable: catalog: 48566, numindb: 20
Update: records affected: 1



GetName: 48566 STARLINK-2214

Hit Count: updated at: Tue, 03 Aug 2021 19:53:19 GMT